Theta_e
298 290 287 288 290 291 292 292 292 293 293 292 294 292 290 289 289 290 292 293 293 292 291 291 292 291 292 292 294 294 292 292 291 292 294 294 294 296 299 301 302 303 306 307 313 316 319 320 321 322 323 323 324 326 327 327 327 327 327 326 325 328 329 328 328 328 328 327 325 322 324 323 324 328 329 329 329 329 329 327 326 326 326 326 326 326
294 288 287 290 291 292 292 292 293 293 293 291 291 291 289 290 287 290 291 293 293 292 290 290 290 290 291 292 293 293 291 293 293 293 293 294 294 295 297 298 300 302 301 302 305 313 314 318 319 320 322 320 322 323 325 326 327 327 326 327 327 327 328 328 329 329 329 329 329 328 327 325 323 324 327 328 328 328 328 328 328 327 325 325 325 324
287 286 289 291 293 293 292 292 292 292 291 292 290 288 288 288 290 291 290 293 293 292 287 287 289 291 292 293 292 292 293 294 295 295 295 295 294 295 295 295 297 297 299 299 303 310 313 316 318 320 321 322 324 324 325 326 326 326 326 327 327 327 328 328 328 328 328 328 327 327 323 325 319 321 326 327 327 327 327 327 327 328 327 324 324 324
284 286 291 293 293 293 291 292 292 291 291 290 289 287 285 289 288 286 289 291 292 288 288 287 287 289 291 291 292 292 294 294 295 295 295 295 296 296 296 296 297 297 298 298 300 304 310 314 317 319 320 321 322 322 323 324 325 326 326 327 327 327 328 327 327 325 328 328 327 325 322 322 323 321 320 323 323 326 326 326 327 327 326 325 324 324
286 289 292 292 292 292 291 290 290 289 288 291 292 290 289 290 289 287 288 290 290 290 290 287 285 286 287 289 290 293 294 294 294 293 294 294 296 297 297 296 297 297 298 299 300 300 306 311 315 318 319 321 321 322 323 324 325 327 326 327 327 328 328 328 326 325 326 324 321 322 318 318 318 318 317 317 320 323 323 324 325 326 325 324 324 324
288 290 292 290 290 291 291 289 289 290 286 288 291 291 292 291 289 289 290 287 285 285 287 288 278 278 282 286 290 293 292 292 292 293 294 295 295 294 294 296 296 297 297 300 301 302 305 310 313 315 317 318 320 321 323 324 325 326 326 326 326 327 327 327 326 325 325 324 325 322 321 319 318 319 318 319 321 320 322 325 324 324 325 325 324 324
289 289 291 291 290 290 291 289 290 291 287 286 287 292 290 291 290 289 288 288 281 281 287 287 281 275 281 283 286 288 287 290 292 292 294 295 296 295 296 297 296 297 297 297 301 301 302 306 310 312 314 316 318 320 321 322 323 324 325 325 325 326 327 327 326 324 323 324 325 324 324 323 321 321 320 317 318 321 320 320 323 325 324 325 325 323
287 288 289 291 290 290 289 288 290 291 288 284 290 293 292 291 289 288 288 287 284 287 291 288 281 277 279 285 287 287 286 288 289 290 292 294 294 296 297 297 296 299 299 299 301 302 302 304 307 309 310 312 316 317 316 318 319 321 322 324 324 325 324 326 326 323 323 324 324 323 323 322 321 321 320 317 318 319 320 320 320 321 324 324 324 324
288 287 289 289 289 288 289 289 292 292 289 288 293 294 292 292 289 290 289 286 287 285 282 283 288 282 276 281 285 287 287 287 288 290 292 294 295 296 296 297 296 297 299 300 302 302 302 302 303 305 306 308 309 308 310 314 317 319 320 321 322 323 322 322 324 324 323 323 324 323 323 320 319 318 317 315 316 317 317 319 315 318 321 322 323 323
288 289 291 292 290 288 289 291 292 293 289 293 294 295 294 293 292 291 285 287 285 281 278 281 284 278 278 280 284 284 286 286 288 291 293 294 295 295 296 297 297 296 295 297 299 299 299 300 301 302 303 302 303 304 306 307 310 314 315 317 319 320 320 321 322 323 323 322 321 321 320 320 317 315 315 313 315 314 312 317 314 313 316 318 320 321
290 291 292 290 290 290 289 290 290 292 292 294 293 292 290 288 286 284 284 282 284 277 278 281 283 282 277 281 285 286 286 288 290 288 288 290 292 293 294 295 296 296 296 296 297 297 298 298 298 298 301 301 299 300 302 303 306 311 314 315 317 319 319 319 320 321 322 321 320 321 320 319 317 315 315 313 313 313 311 315 314 312 312 312 316 317
287 290 291 289 290 290 291 290 292 293 293 294 288 285 287 285 283 282 282 283 277 274 277 280 283 283 276 277 283 287 286 286 290 290 292 292 293 293 293 294 295 296 297 297 297 298 298 298 298 297 299 299 300 300 301 302 303 307 310 313 315 314 315 316 318 319 320 319 318 318 318 318 317 316 316 316 314 312 313 313 313 310 308 311 313 314
284 285 289 290 293 292 289 289 288 290 291 290 288 286 283 279 279 275 278 276 275 275 280 279 282 282 281 284 287 288 289 288 287 289 291 292 294 295 294 294 294 295 295 296 296 296 297 298 299 297 297 298 300 301 300 302 302 304 306 309 313 312 311 314 314 316 316 317 316 317 316 316 316 315 315 314 312 310 311 311 312 309 309 307 307 310
282 283 288 289 290 292 291 288 283 285 287 288 286 282 280 276 273 270 269 272 272 277 280 281 281 280 281 284 291 292 296 296 291 289 290 294 295 295 295 294 295 295 294 295 296 297 298 299 299 299 298 300 301 300 300 301 301 302 303 304 309 310 307 309 312 313 314 315 314 314 314 315 314 314 313 313 313 310 310 309 311 310 310 309 310 308
277 278 284 286 284 290 290 289 289 287 288 289 288 287 283 282 275 271 273 273 274 274 277 280 279 275 278 283 285 291 293 293 288 291 292 292 294 294 294 294 294 295 294 294 296 299 300 300 299 300 300 300 301 300 301 301 301 301 302 303 304 305 305 308 310 310 312 312 312 311 312 312 311 312 311 311 312 311 310 308 311 309 307 307 308 308
283 280 284 289 288 289 289 292 292 289 288 286 289 290 285 284 284 278 278 276 273 273 275 277 277 278 283 285 289 288 289 292 291 292 292 293 294 293 294 296 296 297 297 296 297 298 299 301 300 300 300 301 301 301 301 302 303 303 303 303 304 307 307 309 309 309 310 310 310 309 310 311 311 309 311 309 310 310 310 310 310 309 307 307 308 310
280 279 285 287 288 288 289 289 292 291 283 286 288 283 284 289 285 280 280 282 277 274 273 275 279 281 283 288 293 289 288 290 290 290 290 291 291 292 292 293 294 295 296 295 297 297 298 298 299 301 301 301 301 301 302 303 304 304 304 304 305 306 305 307 307 309 308 309 309 309 310 308 308 310 310 311 308 309 310 310 309 309 309 309 311 311
281 279 285 284 286 289 288 287 290 289 289 286 282 286 289 292 289 285 279 277 276 273 274 277 277 277 280 279 285 288 287 288 287 289 289 289 289 291 292 293 295 296 296 296 296 295 297 298 298 298 299 300 302 302 301 303 302 304 305 305 306 305 307 305 307 308 308 308 309 309 309 308 308 308 307 307 308 306 308 306 306 306 306 305 305 304
286 279 283 286 285 287 289 291 290 291 291 287 286 291 288 282 282 283 281 274 273 271 271 276 276 276 278 281 282 284 285 289 289 288 288 290 290 292 292 293 295 295 296 296 296 296 296 296 298 298 300 299 301 302 302 303 304 305 304 306 308 307 307 307 308 307 306 308 309 310 310 310 308 305 305 304 304 304 307 305 304 305 304 303 300 302
286 280 280 284 286 287 285 285 283 284 289 291 290 287 288 286 283 281 281 279 279 273 274 272 276 277 280 281 283 288 287 288 288 286 288 290 291 292 292 295 296 296 296 296 296 296 296 297 297 298 299 300 301 301 302 303 303 305 305 306 306 305 305 305 305 304 306 305 307 308 309 309 308 306 306 305 306 306 303 303 302 302 303 302 299 299
284 283 275 282 286 286 282 283 283 285 283 283 283 283 285 284 285 283 284 280 277 273 271 269 272 274 280 286 286 289 288 287 287 289 289 289 290 291 293 296 295 294 295 295 296 297 297 296 296 296 296 297 298 299 300 302 304 304 305 305 305 306 305 305 303 304 304 305 305 305 307 308 309 309 305 303 303 304 301 300 300 300 301 296 296 294
283 281 279 280 281 280 280 284 285 286 287 285 286 284 287 281 281 279 279 281 278 278 273 272 274 275 283 288 288 288 289 290 289 288 289 288 290 291 293 295 294 294 294 294 295 296 297 296 296 295 295 295 299 299 300 300 301 301 303 305 305 305 304 304 304 305 304 304 305 306 307 306 306 308 305 303 299 299 296 295 295 294 292 296 294 293
285 279 282 276 279 281 284 289 287 288 287 287 286 285 287 285 283 280 277 278 279 278 277 274 273 278 286 287 287 288 287 288 288 289 291 292 291 291 294 295 294 294 295 295 295 296 296 296 296 297 297 297 298 299 299 298 301 301 301 302 303 304 303 305 304 303 304 303 303 301 300 300 299 299 298 298 294 295 293 292 291 290 293 292 291 291
290 282 279 280 283 283 285 287 287 287 287 287 286 285 285 284 285 283 281 281 281 277 277 277 275 273 283 287 285 286 287 286 287 287 289 291 291 292 293 295 295 296 295 295 294 294 294 293 292 295 296 297 297 297 298 299 299 300 300 301 301 301 300 300 300 301 301 298 295 294 295 294 294 294 294 294 291 292 290 290 290 289 291 288 289 293
283 281 283 277 275 277 277 281 282 285 286 282 282 284 285 286 285 280 281 281 281 279 281 277 277 277 282 280 283 286 287 287 287 287 287 290 292 293 294 295 295 295 295 295 294 293 292 292 294 296 295 296 296 295 297 299 298 298 297 297 298 297 296 296 296 297 296 295 294 293 294 291 292 291 291 291 289 289 289 288 290 290 288 288 289 288
285 283 284 277 275 272 269 272 278 280 281 281 281 283 286 287 284 283 280 280 278 277 279 275 278 281 283 283 286 285 285 286 287 287 287 288 292 294 294 295 295 294 296 294 293 293 294 294 292 292 292 294 293 296 296 295 295 294 294 295 293 295 295 294 294 295 295 294 293 292 291 290 291 290 290 290 289 288 288 289 289 288 287 287 289 286
282 286 286 284 282 280 282 282 284 286 285 284 285 285 285 287 286 286 283 280 281 279 279 281 285 284 284 285 285 286 285 287 288 288 290 289 289 292 294 295 294 294 294 294 294 293 292 292 294 295 294 295 293 293 293 293 293 292 292 292 290 291 293 293 294 293 293 292 291 291 289 289 288 288 289 288 289 288 288 288 287 287 288 287 288 287
284 283 286 284 284 285 283 284 287 290 285 286 285 284 285 285 284 285 283 282 284 280 280 284 285 283 286 286 286 286 286 286 288 289 290 289 289 293 295 293 294 294 294 293 293 294 296 296 294 294 294 293 293 292 292 291 292 292 292 292 291 291 293 294 293 292 291 291 290 290 289 288 287 288 288 288 288 288 287 287 286 286 286 286 288 287
285 284 284 284 283 286 285 286 288 288 287 286 286 286 284 285 284 284 285 288 285 283 282 287 286 284 286 287 289 289 288 289 290 291 291 291 290 292 292 292 293 293 292 293 294 294 294 296 294 294 293 292 292 292 291 292 291 291 290 290 291 292 291 291 292 291 291 290 290 289 289 288 287 287 287 287 287 287 286 286 285 286 286 286 286 288
287 281 283 285 283 286 284 286 287 287 284 283 284 285 286 285 286 287 287 288 287 285 287 288 287 287 289 288 289 290 289 289 288 288 288 289 291 294 293 292 293 292 292 293 294 295 295 296 295 294 293 292 293 292 291 291 291 290 291 291 290 291 289 291 290 290 290 290 288 288 288 287 287 286 286 286 286 285 285 286 285 285 285 285 285 285
287 281 288 284 284 285 288 288 287 286 285 283 283 284 285 286 286 287 288 288 286 286 287 285 283 285 288 289 290 289 288 290 289 289 291 292 292 293 294 293 293 293 293 293 293 294 295 294 293 292 293 292 292 291 292 291 290 290 290 289 290 289 289 290 289 289 289 288 287 287 287 287 286 285 285 284 284 284 285 285 285 285 284 284 284 284
286 279 283 282 280 280 283 286 286 285 284 285 284 284 285 284 283 285 284 287 284 284 286 283 283 285 289 289 290 290 289 290 291 291 291 291 292 294 294 294 294 294 294 294 294 294 293 293 292 292 292 291 291 291 291 290 290 290 290 289 289 288 288 288 288 288 287 286 286 286 286 285 285 285 284 284 283 283 283 283 284 284 283 283 284 283
286 283 282 280 279 277 278 281 281 282 283 282 284 286 287 287 288 288 289 288 289 289 285 283 285 291 288 290 292 291 289 289 290 291 291 291 292 294 295 295 295 295 295 294 295 294 293 292 292 291 290 290 291 291 289 290 290 290 289 288 287 288 288 287 287 287 286 285 285 284 284 284 284 284 283 283 283 283 283 282 283 283 283 284 282 282
283 285 283 282 279 275 276 281 280 280 276 280 291 292 290 287 286 284 285 287 289 289 288 290 291 289 288 288 290 288 288 290 293 294 294 295 293 293 295 295 295 295 294 292 293 292 291 290 289 288 288 288 287 288 288 289 289 288 287 287 287 287 287 286 286 286 285 285 284 284 284 283 283 283 283 282 282 282 282 283 283 282 282 282 282 283
285 282 280 280 276 275 275 281 278 275 278 286 289 292 293 292 290 289 290 290 290 290 290 290 290 288 288 290 291 291 291 292 292 293 293 292 292 294 295 294 294 293 294 292 290 290 290 289 288 287 287 287 287 287 288 288 288 287 287 287 286 286 285 285 285 284 284 284 284 284 283 283 283 282 282 281 281 281 282 282 282 282 282 283 282 283
284 285 280 279 276 273 274 276 271 277 282 281 285 289 291 291 291 288 287 290 290 290 290 290 292 292 291 290 290 290 290 292 290 290 290 290 290 294 294 295 295 294 292 292 292 291 289 288 288 288 288 287 287 287 288 288 287 287 286 286 285 285 284 284 283 283 283 283 282 282 282 282 281 281 281 281 281 281 281 281 281 281 281 281 281 281
287 285 283 278 277 275 273 277 278 279 281 284 283 284 286 285 283 286 284 288 292 292 291 291 292 292 292 292 291 290 289 289 289 292 289 290 292 291 294 295 295 293 293 292 293 291 289 288 288 287 287 287 287 287 287 286 286 285 284 284 283 283 283 282 282 282 282 282 282 282 281 281 281 281 280 280 280 280 280 280 280 280 280 281 281 281
287 286 280 283 276 276 274 272 272 274 275 282 284 285 291 290 290 290 287 286 291 291 293 292 292 293 291 289 290 288 287 288 288 289 289 289 289 288 285 285 286 288 288 287 286 286 286 286 286 286 287 286 286 286 286 285 285 284 283 282 282 281 281 281 280 280 280 281 281 281 281 281 281 280 280 280 280 279 279 278 279 279 279 280 280 280
284 283 284 285 277 275 273 273 271 273 279 282 284 287 289 290 290 288 283 283 288 289 290 292 292 292 290 289 289 286 287 287 288 291 289 288 287 287 287 285 285 286 286 287 287 286 285 286 286 285 285 285 284 284 284 283 283 282 281 280 280 279 279 279 279 279 279 280 280 280 280 280 280 279 279 279 278 278 279 279 279 278 278 279 278 278
282 280 281 278 274 277 277 274 275 274 280 281 284 284 288 290 292 288 274 280 285 289 291 291 291 291 290 291 289 288 289 287 289 290 288 288 286 286 285 286 286 285 285 285 285 285 284 284 284 284 284 284 283 283 282 282 281 280 279 278 278 278 277 277 277 278 278 279 280 280 279 279 278 278 278 278 277 278 278 278 277 278 277 277 277 278
278 279 279 280 280 278 281 273 273 278 281 280 282 284 287 292 290 280 277 283 285 287 286 289 290 292 290 288 289 288 291 291 287 285 284 285 285 284 284 284 284 284 284 283 283 284 283 283 283 282 281 281 281 281 281 280 279 278 278 277 277 275 275 276 276 277 278 279 279 278 278 278 277 278 277 276 277 277 277 277 277 277 277 277 278 277
276 275 275 276 275 277 276 275 277 278 282 285 282 287 289 289 277 280 287 285 287 285 283 286 289 289 288 289 289 291 285 280 282 282 283 283 283 282 283 283 282 282 281 282 282 282 281 280 280 279 279 279 279 279 279 279 278 276 276 276 274 274 274 275 275 276 277 277 277 277 276 276 277 276 276 276 275 275 276 276 275 276 276 277 276 277
281 279 278 280 276 274 272 275 275 275 281 288 288 286 287 285 285 284 282 284 285 284 286 286 287 285 287 288 287 284 281 282 282 282 281 281 282 282 282 282 282 282 281 281 280 280 281 280 278 278 277 277 277 277 277 277 276 275 274 273 272 273 273 273 273 274 275 275 274 274 274 274 274 275 275 275 274 274 275 274 276 276 276 275 275 275
284 279 275 279 281 277 277 275 278 283 287 291 291 287 289 288 284 284 288 288 285 283 284 286 285 285 286 288 284 282 282 282 280 280 281 280 280 281 280 281 281 281 280 280 280 280 279 278 277 276 276 276 275 275 275 276 274 273 272 271 271 271 270 271 271 271 272 273 272 272 273 272 273 273 272 274 274 274 274 275 272 273 275 276 276 276
285 284 284 282 282 281 281 284 285 280 285 284 287 289 293 290 285 286 288 289 288 286 282 285 287 285 283 285 284 284 282 281 282 282 282 281 281 281 281 281 281 281 280 280 279 279 279 278 277 276 274 274 273 273 273 273 273 272 270 269 269 268 268 268 269 270 270 270 270 271 270 271 273 273 273 273 273 274 274 274 273 274 275 274 275 277
285 286 281 286 283 286 285 285 284 284 285 287 287 285 286 287 285 283 285 287 286 283 285 284 283 283 283 285 285 282 283 283 282 281 280 280 281 280 280 280 280 280 280 279 278 278 278 277 276 275 273 272 271 270 270 270 270 270 268 268 268 267 267 267 268 269 269 269 271 271 271 273 274 275 275 276 277 277 278 277 276 276 275 274 275 277
285 283 284 283 282 284 282 284 285 288 285 285 286 285 284 283 286 284 285 286 286 283 284 283 285 285 286 286 287 286 283 283 282 281 280 280 280 280 280 280 280 280 279 279 278 277 276 276 275 274 273 271 271 269 268 267 267 267 267 267 267 267 267 267 269 270 270 271 271 271 272 273 274 274 276 276 276 277 277 277 275 274 274 273 275 277
284 284 286 280 283 285 284 283 284 284 284 282 284 287 288 287 286 285 285 284 283 282 283 284 284 284 284 284 284 285 283 283 282 281 281 281 280 280 280 280 280 279 279 278 278 276 276 275 275 274 273 272 271 269 267 266 266 266 266 266 266 265 266 269 269 270 270 270 271 272 273 273 274 274 273 274 274 274 273 272 272 272 273 272 274 276
285 288 285 284 284 281 282 283 283 283 286 287 285 283 286 289 287 282 282 283 283 285 283 282 281 284 285 285 284 284 283 283 283 282 282 281 280 280 280 280 279 279 278 277 276 276 275 275 274 273 273 272 271 268 267 266 266 266 266 266 265 266 267 269 271 271 271 271 271 272 273 272 272 272 272 272 272 272 273 273 273 273 272 272 272 274
287 285 283 284 282 283 285 285 285 284 283 287 287 288 286 283 284 284 282 283 283 283 282 284 284 282 283 284 285 285 285 284 283 282 282 281 281 280 280 280 279 278 277 277 276 275 274 273 272 272 272 271 270 268 267 266 265 265 265 265 265 266 267 269 270 270 269 270 270 271 271 271 271 272 272 271 271 271 271 276 278 277 273 271 278 280
289 286 286 286 285 286 286 288 289 287 285 287 290 288 285 283 285 286 286 285 284 284 284 285 284 284 283 283 284 285 285 284 283 282 281 281 281 280 280 279 278 278 277 276 275 274 273 272 272 271 271 270 270 268 267 265 265 264 264 265 265 265 266 267 268 269 268 269 269 270 270 271 271 271 270 270 270 270 270 268 272 278 279 278 279 280
Wind_Speed
4 6 9 10 7 7 6 5 6 7 10 2 1 3 8 8 2 2 2 1 0 3 7 8 9 7 7 5 7 6 3 4 4 6 8 7 7 9 9 10 12 11 13 10 11 11 12 11 10 9 10 10 10 10 11 11 10 11 11 10 11 10 10 9 9 9 9 9 7 5 7 7 7 7 7 8 7 7 7 7 7 7 7 7 8 9
4 6 7 5 5 5 7 5 5 8 11 6 2 2 6 4 6 2 1 0 2 2 3 3 3 6 8 6 8 3 4 9 11 9 9 10 9 8 11 12 11 12 4 3 5 8 8 8 9 8 8 8 11 9 11 13 13 11 10 12 11 9 10 11 11 10 10 10 10 10 10 8 6 7 8 8 7 8 7 7 8 6 6 7 7 8
5 9 6 7 7 6 6 7 7 9 11 4 4 3 3 6 1 1 1 1 1 1 5 3 6 9 9 9 5 5 9 8 11 12 13 13 10 9 8 9 10 6 8 7 10 10 10 11 11 10 9 10 13 13 14 13 12 12 11 11 11 10 11 11 11 10 11 9 8 8 6 8 5 4 6 7 7 7 7 8 8 8 7 6 7 8
6 6 8 8 8 8 6 8 9 9 7 7 3 1 5 5 6 3 2 1 1 1 1 1 1 8 6 5 7 7 9 7 8 11 9 9 13 12 12 12 11 12 10 10 11 13 12 12 12 11 11 11 10 10 10 11 13 12 12 11 12 12 11 11 11 12 11 9 7 5 4 4 6 6 5 6 6 7 7 9 8 8 8 8 7 8
5 3 7 8 9 10 9 6 9 9 8 4 4 1 1 2 3 3 4 1 1 1 1 1 4 7 5 6 6 6 9 7 5 6 7 7 9 10 8 7 10 13 12 11 9 8 10 11 13 14 13 11 12 12 13 13 12 11 14 14 14 13 13 12 12 12 9 7 5 5 3 3 3 0 4 5 6 8 8 7 8 9 7 7 7 7
7 4 4 7 9 10 9 7 9 8 7 4 4 6 3 3 5 3 5 5 2 2 1 2 2 5 5 7 12 11 5 7 6 8 11 13 12 8 7 12 10 9 9 13 13 13 13 14 12 10 11 12 11 12 12 12 13 13 13 13 12 11 11 12 12 12 10 10 10 9 9 9 7 8 7 11 12 9 9 11 6 6 8 8 8 7
7 1 6 8 8 9 8 6 5 10 7 6 5 3 5 7 6 7 5 3 1 2 2 1 8 6 6 4 5 7 5 10 6 8 13 12 12 10 12 12 10 12 10 7 7 8 9 10 10 11 12 12 13 12 10 10 11 12 11 12 12 12 11 11 10 11 10 10 11 13 13 11 12 11 9 6 5 8 6 4 7 7 7 8 8 8
2 2 3 3 7 10 9 9 4 9 7 6 1 3 7 8 7 6 6 3 1 1 1 2 3 3 6 9 6 5 5 9 9 8 10 10 10 12 13 11 9 10 10 11 11 11 12 13 15 16 14 12 14 12 9 9 8 10 11 11 12 10 10 10 10 11 12 13 12 12 12 10 10 11 9 7 7 6 7 6 6 6 7 7 7 8
7 5 6 7 5 7 10 6 4 7 6 3 2 6 6 8 6 6 6 3 1 1 4 1 0 0 5 8 7 2 5 6 8 9 11 12 12 11 10 10 9 9 8 9 11 12 12 12 12 11 12 12 9 7 9 10 10 10 10 10 9 10 9 9 11 12 12 12 12 12 10 10 7 7 7 6 5 6 7 7 7 6 6 6 6 6
2 8 14 13 9 9 4 5 4 10 5 2 3 5 4 5 4 6 4 4 1 1 5 4 2 3 7 7 5 2 1 6 8 10 11 11 12 12 12 11 9 7 6 6 7 6 7 7 8 8 6 6 9 8 7 7 6 7 7 9 10 10 9 9 10 12 12 11 9 10 10 11 8 6 5 5 6 5 6 7 6 5 5 5 5 6
2 2 1 2 7 4 5 1 1 2 2 4 5 7 5 6 4 2 5 3 2 3 7 6 4 3 4 4 6 5 5 7 8 5 6 6 7 9 9 8 7 8 7 6 6 5 4 3 5 5 8 8 5 5 6 7 7 8 9 9 11 12 9 8 10 11 12 10 9 10 10 10 9 8 7 6 7 5 6 7 6 6 5 4 5 5
2 1 1 1 0 1 3 4 4 1 3 9 3 4 7 4 6 3 2 3 2 6 5 2 2 5 6 4 6 8 6 5 7 8 9 8 8 9 7 5 5 5 5 4 4 4 3 3 2 3 5 5 5 5 6 6 6 7 8 8 10 8 9 8 8 9 10 9 9 7 9 10 9 9 9 10 9 7 8 6 6 5 4 6 6 5
1 0 1 4 3 4 3 6 3 3 1 4 7 7 8 1 2 1 1 2 4 6 0 2 1 1 9 7 9 7 8 7 6 7 7 8 4 3 3 4 4 4 4 5 5 5 4 6 6 5 5 5 5 7 6 7 7 7 7 8 10 9 7 7 6 8 8 8 8 8 8 8 8 9 9 8 7 6 6 6 6 5 5 4 4 4
2 2 2 3 4 2 4 11 2 2 1 5 9 7 6 3 2 3 3 1 3 4 3 1 1 3 3 6 13 15 18 16 8 8 5 7 7 6 5 4 4 4 5 5 5 5 6 6 5 5 6 6 6 6 6 5 6 6 6 6 8 8 5 5 6 7 7 8 7 7 8 8 8 8 7 7 7 6 6 5 7 6 6 6 5 5
6 2 6 4 1 1 1 2 9 8 7 8 4 9 7 7 5 4 3 4 7 6 1 3 2 6 4 4 3 9 9 9 4 3 2 3 5 5 4 3 2 4 5 4 5 5 6 7 6 7 6 6 5 5 5 4 5 4 5 5 6 5 5 5 6 6 7 7 6 6 6 6 5 7 6 5 6 6 6 4 6 5 4 5 4 5
10 2 3 3 1 1 6 1 2 5 2 2 2 4 6 8 5 5 5 5 2 1 1 0 5 5 5 3 7 4 3 1 0 0 2 5 3 3 4 5 6 6 5 4 5 5 5 6 5 5 5 5 5 5 5 5 5 5 5 5 5 7 6 6 7 6 6 6 5 5 6 6 6 5 6 5 4 5 6 6 6 5 4 4 4 5
3 4 3 6 3 1 1 1 1 2 7 4 4 5 3 2 9 5 2 0 4 3 6 2 4 6 7 8 11 5 4 7 2 3 1 2 3 2 5 6 6 6 5 4 5 5 5 4 4 6 6 5 5 5 6 6 6 6 6 6 6 5 5 5 6 6 5 5 6 5 5 5 5 6 6 7 5 5 5 6 5 5 6 4 5 5
11 2 1 3 2 0 0 0 2 1 2 6 2 8 1 2 4 5 4 0 1 4 6 3 6 5 1 6 4 2 2 7 5 5 5 4 4 5 7 6 6 6 6 5 5 4 5 5 5 4 4 5 5 5 5 5 5 5 5 5 6 5 6 5 6 6 6 6 6 5 5 5 5 5 5 5 5 4 4 3 3 2 2 3 3 2
8 3 1 1 2 6 1 0 1 1 0 4 7 3 7 4 3 2 4 2 2 2 2 2 3 4 6 6 4 4 4 8 9 6 4 6 7 8 6 6 5 3 3 4 4 4 4 4 4 5 5 4 5 5 5 5 5 4 4 5 7 7 6 6 5 5 4 5 5 5 6 5 4 4 4 3 4 4 4 4 4 4 4 2 2 4
3 7 2 2 1 1 2 3 8 4 2 0 1 1 1 3 2 4 6 4 5 5 1 6 2 5 6 6 6 9 9 9 7 4 7 9 8 7 6 6 5 6 6 5 5 4 4 4 4 5 5 6 6 5 5 5 4 5 6 6 6 5 4 4 4 4 5 4 5 4 4 3 3 3 3 3 3 3 2 2 3 3 2 2 3 4
3 2 5 2 2 2 3 2 7 8 7 1 2 2 0 1 2 4 1 4 5 4 3 2 2 4 6 6 4 8 5 5 5 7 7 7 6 5 6 7 6 6 6 6 5 5 4 4 4 3 4 4 4 4 4 5 6 6 6 6 6 7 6 5 4 5 4 5 4 5 4 3 2 2 2 3 3 3 3 4 4 4 4 3 3 3
3 2 8 1 2 4 5 1 2 5 4 4 9 10 10 7 4 5 7 2 1 2 4 3 8 7 9 2 4 4 4 2 2 4 5 5 5 6 6 6 7 7 6 5 5 5 5 4 4 4 4 4 5 5 5 4 5 5 6 6 5 6 5 5 5 5 4 4 5 5 5 5 4 4 3 3 3 4 4 3 4 4 3 4 2 3
7 3 9 5 7 7 3 2 2 1 0 2 1 5 5 2 5 4 6 5 2 1 3 2 1 8 6 2 2 3 3 4 3 0 3 2 3 4 5 6 5 5 4 4 4 5 5 5 5 5 6 5 5 5 5 4 4 5 5 5 5 6 5 5 5 4 5 5 5 4 4 5 4 4 5 5 4 5 4 4 4 3 5 4 3 4
10 5 6 2 1 3 3 3 2 0 0 1 3 1 2 5 3 5 5 6 7 1 2 1 5 6 1 1 5 5 4 4 4 2 2 2 3 3 4 3 4 3 2 2 2 3 4 5 4 5 5 5 5 5 5 4 4 4 4 5 5 6 5 5 5 5 5 5 5 5 5 5 4 5 5 5 4 5 4 5 4 4 5 4 4 5
4 2 10 5 2 2 4 2 2 1 1 1 2 2 1 1 1 1 3 1 2 6 7 6 13 3 3 2 4 3 4 4 5 4 4 4 4 4 4 3 2 4 4 4 4 4 4 5 6 5 5 5 5 4 4 5 4 4 4 4 6 5 5 5 5 6 5 6 6 5 6 5 5 5 5 5 4 5 4 4 4 5 4 4 4 3
4 6 10 8 10 8 4 5 11 11 8 2 1 3 6 7 6 3 2 1 4 2 5 3 9 6 7 5 4 4 2 4 5 4 4 4 4 4 3 3 4 5 6 5 4 4 5 5 4 5 5 4 4 5 5 5 5 4 5 5 4 6 5 5 6 6 7 6 7 6 6 6 6 5 5 5 5 4 4 6 4 4 4 4 4 4
3 4 4 10 14 15 15 3 4 12 5 9 9 10 7 5 6 5 4 4 10 5 7 9 13 7 5 4 3 7 3 5 5 3 4 5 5 4 4 4 5 5 5 5 5 4 3 5 6 5 5 5 5 5 5 6 5 5 5 5 4 4 6 5 7 6 7 6 6 6 5 5 5 5 6 6 6 4 4 4 4 4 4 3 4 4
3 4 8 6 6 2 4 4 9 18 14 14 9 8 8 7 7 8 9 10 4 5 9 10 10 7 10 5 6 7 5 5 6 6 6 4 5 6 6 4 4 2 2 3 4 5 6 5 5 6 6 6 6 6 5 4 5 5 6 6 4 5 6 6 7 7 7 7 7 6 6 6 5 5 5 5 5 5 4 4 4 3 3 4 4 3
6 8 4 5 2 2 7 9 10 7 10 10 12 12 11 11 8 11 12 13 8 10 17 15 8 9 7 6 11 10 7 7 8 9 7 5 2 2 3 5 5 5 5 5 5 5 5 6 6 6 6 6 6 7 7 6 6 5 5 4 5 5 6 6 8 8 7 7 7 6 5 5 4 4 5 5 5 5 4 4 4 4 4 4 3 3
4 2 5 4 3 3 4 10 8 12 5 4 8 9 10 10 14 16 17 16 15 14 17 14 10 16 9 7 9 8 8 7 3 1 1 2 6 7 5 5 6 6 6 7 6 6 5 6 6 6 6 6 7 7 6 6 5 5 6 6 5 6 5 8 8 9 8 8 6 5 5 5 5 5 4 5 5 4 4 4 4 4 4 4 3 3
6 4 8 4 4 4 5 8 8 8 8 5 4 6 9 11 13 16 14 13 8 8 10 5 5 14 7 8 5 6 5 0 1 2 6 9 7 7 7 7 7 7 7 6 5 5 5 6 6 5 6 6 6 6 6 6 5 6 6 6 6 6 5 7 8 8 8 7 5 6 5 6 5 5 6 4 4 4 4 4 4 5 4 4 4 4
3 1 1 5 7 4 3 8 8 6 4 5 4 7 12 13 12 10 9 8 5 11 12 7 10 16 3 5 6 6 4 4 7 8 8 6 6 8 9 9 9 8 8 8 6 6 6 6 7 6 6 6 6 6 7 7 6 6 6 6 6 6 5 7 8 9 8 6 6 6 6 6 5 6 5 4 4 4 4 4 5 5 4 4 4 4
7 7 7 5 8 6 3 4 7 8 5 1 8 17 18 13 12 9 10 9 13 15 10 11 19 13 4 7 9 5 3 6 7 7 5 3 6 10 12 12 12 10 9 9 8 8 8 8 7 6 6 5 6 6 6 7 8 8 7 8 6 6 7 7 7 8 8 6 6 6 5 5 6 5 5 4 4 4 5 5 5 5 5 5 3 4
3 9 7 6 8 3 1 7 3 6 6 16 13 7 11 12 11 7 8 13 14 9 12 14 12 3 2 4 8 4 6 7 9 10 9 9 9 7 8 8 9 10 8 5 6 8 7 6 5 5 5 5 4 5 5 5 8 7 7 8 7 8 7 8 6 7 7 7 6 6 5 5 5 6 5 4 4 4 5 5 5 4 4 4 4 5
8 5 4 2 5 3 3 8 5 8 16 4 8 11 15 12 13 18 18 15 13 12 13 14 14 5 6 9 10 9 9 9 8 10 10 7 6 9 11 11 10 9 9 8 7 7 9 9 7 7 6 6 6 6 7 7 7 8 8 7 9 7 8 7 7 6 6 7 6 6 5 5 5 6 5 5 4 4 5 5 4 4 4 4 4 4
10 10 5 2 5 3 3 6 4 13 6 2 5 6 8 8 11 7 7 9 10 13 16 18 22 17 11 10 8 5 6 8 6 7 7 4 5 8 9 10 12 10 9 10 12 11 12 12 13 12 10 6 7 6 6 8 7 9 8 6 8 8 7 7 8 6 5 6 5 5 4 5 5 5 5 4 4 5 5 5 4 4 3 3 4 3
13 6 6 4 1 7 5 9 10 4 8 7 6 3 7 7 6 10 12 16 14 12 14 17 19 12 8 8 7 5 1 0 2 9 4 5 6 6 9 10 7 8 9 9 12 12 8 9 10 9 9 8 7 8 8 7 8 9 9 9 7 7 7 7 8 6 4 5 4 5 5 4 5 5 4 4 5 5 4 4 4 4 3 4 4 5
7 11 4 9 3 7 7 1 1 4 9 15 2 1 8 7 8 8 8 14 7 11 13 14 17 14 8 6 6 5 2 3 9 10 5 4 1 3 3 3 4 5 6 8 7 8 8 8 8 7 9 10 7 6 7 7 9 10 10 8 6 7 7 7 7 4 4 4 3 4 4 4 5 6 4 5 5 4 3 2 2 3 3 4 4 5
4 4 7 10 4 5 3 6 6 7 14 3 7 7 7 9 11 8 4 14 7 8 8 14 17 11 7 8 8 5 6 8 12 11 5 6 2 2 5 5 6 6 7 6 10 12 9 8 9 9 8 9 10 6 6 8 9 11 10 7 7 7 8 7 5 3 3 3 3 4 4 5 5 5 4 5 4 3 3 3 3 1 3 3 3 3
7 3 6 4 5 6 7 5 8 5 8 4 7 5 10 10 13 8 2 11 1 12 15 13 12 11 10 12 9 11 11 10 13 10 6 6 4 2 3 8 8 8 8 7 6 8 10 9 11 9 9 9 8 7 8 7 9 10 10 7 6 7 7 4 2 1 2 3 3 4 5 4 4 4 4 4 3 3 3 1 2 3 3 3 3 3
4 1 4 12 9 5 9 5 3 7 4 4 6 5 8 12 11 8 15 8 6 8 3 6 11 12 9 7 8 8 13 7 3 1 7 7 7 6 6 5 5 6 10 9 9 8 9 7 7 9 7 6 6 7 7 8 10 10 8 7 8 7 4 1 1 1 2 3 5 5 5 4 4 5 4 3 2 2 3 3 3 3 3 4 4 4
0 3 2 4 5 9 7 5 8 6 8 7 1 11 10 9 3 14 7 3 8 6 4 7 9 8 6 10 10 10 3 2 3 4 6 5 6 6 6 7 8 8 6 6 7 8 9 9 9 8 7 5 6 6 6 8 11 9 7 7 8 4 2 2 2 2 3 5 6 5 5 4 4 3 3 3 3 4 4 3 3 3 4 5 5 5
10 8 8 9 3 3 2 4 0 10 3 8 10 2 3 6 10 7 3 0 2 3 5 3 7 5 7 7 5 5 6 4 5 5 5 5 7 8 8 8 10 10 11 10 8 5 9 10 9 8 7 5 5 5 4 9 11 8 6 9 4 3 3 2 2 2 4 5 5 5 4 4 4 4 4 4 3 4 5 4 5 5 5 5 4 4
7 6 4 6 5 8 7 7 10 9 8 13 19 12 10 9 2 6 7 5 3 3 4 4 3 6 7 7 8 5 5 8 4 5 5 4 5 5 5 5 7 7 7 5 7 9 8 10 9 9 6 5 5 5 3 7 11 7 8 6 3 3 2 2 2 3 4 5 4 4 5 4 4 4 4 4 4 5 6 5 4 4 4 5 5 5
11 11 10 11 6 7 10 13 9 2 5 1 2 0 11 7 2 7 7 7 7 6 4 3 5 2 4 8 8 10 6 4 7 7 9 9 8 8 9 8 9 10 10 10 9 8 7 11 12 10 8 6 5 5 4 3 10 10 8 3 3 1 1 1 3 4 5 5 4 4 4 4 5 5 5 5 5 5 4 4 3 4 4 3 3 2
4 7 1 3 5 5 5 2 2 2 2 2 0 0 2 4 1 3 4 4 3 3 7 4 4 4 5 8 12 2 5 9 9 7 5 7 7 5 5 6 6 6 7 8 8 8 8 9 9 10 10 6 5 5 4 4 4 10 6 4 2 1 1 1 4 5 5 4 4 4 4 5 5 5 5 5 4 4 3 3 3 2 1 1 1 2
1 3 4 5 1 7 10 3 5 6 4 4 3 1 1 2 2 1 2 0 2 4 3 0 7 6 9 7 10 11 8 9 9 6 6 7 8 9 9 9 8 9 11 11 9 10 10 10 10 10 9 8 5 4 4 5 5 5 4 4 2 1 1 3 4 5 4 5 4 4 4 5 4 4 4 4 4 3 3 3 2 1 1 2 3 3
2 3 5 4 7 12 6 3 3 1 2 4 4 5 3 3 2 1 1 4 5 3 2 3 5 5 4 4 5 11 11 10 11 10 9 9 10 10 9 9 10 8 6 7 9 9 9 10 11 12 9 8 7 5 4 5 5 4 4 2 2 0 2 4 4 5 5 4 3 4 4 5 5 4 3 3 3 3 4 3 2 2 3 4 4 4
5 10 7 7 7 1 4 1 1 5 2 2 5 4 5 8 8 4 4 5 5 5 4 2 1 5 6 6 6 9 11 11 11 13 13 9 8 9 9 9 8 8 9 10 8 8 10 9 10 10 10 7 7 6 5 4 4 3 3 2 1 1 3 5 5 6 6 5 4 4 3 3 3 3 3 3 3 3 3 2 3 4 5 3 3 3
8 11 2 5 4 6 10 7 7 8 4 7 8 9 5 2 5 6 4 4 4 5 5 5 2 1 4 7 10 10 12 11 9 9 10 10 10 10 9 9 9 9 8 6 7 7 6 6 8 9 8 7 7 6 5 4 3 3 3 2 2 2 4 5 6 6 5 4 3 4 3 3 3 3 3 3 3 3 3 5 7 6 5 3 6 8
10 8 8 9 10 13 6 11 10 4 3 5 9 5 6 6 7 7 7 5 4 4 6 7 5 1 3 4 5 8 8 11 12 9 8 8 10 10 11 13 13 11 10 9 10 8 8 8 7 7 8 7 7 6 5 4 4 4 3 3 2 2 3 4 6 5 4 4 3 3 4 3 4 3 3 3 2 2 3 3 5 9 10 8 6 7
Wind_Direction
143 167 193 200 192 197 205 191 162 219 253 271 310 185 210 214 260 300 279 281 25 133 217 206 220 230 248 229 242 218 204 235 249 229 222 214 202 202 204 204 207 207 215 209 202 199 198 194 189 187 181 184 185 184 182 180 180 179 176 170 180 183 176 173 176 184 186 189 192 199 200 199 192 192 188 193 197 197 198 195 197 194 199 199 194 194
118 185 217 192 195 187 200 194 187 221 249 252 261 200 255 209 220 261 267 293 330 149 264 214 244 258 254 251 242 221 152 220 216 218 223 222 213 204 202 208 209 214 234 180 212 218 204 197 193 184 183 175 178 192 182 186 189 183 175 178 179 177 181 184 184 186 192 197 198 194 201 193 179 183 188 196 199 200 199 204 206 201 193 197 200 199
185 207 198 200 191 195 197 194 204 216 240 244 234 206 226 245 163 271 344 12 295 80 263 351 224 254 248 246 249 178 196 221 212 201 206 203 215 217 212 213 215 222 221 197 205 202 201 197 194 186 189 191 188 187 187 190 186 186 180 186 182 182 183 189 188 186 197 199 200 196 199 187 191 197 190 188 192 190 199 207 209 209 206 191 196 197
189 233 212 199 196 201 213 200 203 223 233 237 269 104 218 205 143 252 292 42 4 124 249 27 320 278 286 273 253 231 205 229 215 211 222 200 202 210 211 201 201 213 210 205 200 201 201 196 195 192 193 194 190 188 193 191 188 188 188 189 188 186 186 188 192 193 199 196 193 199 180 187 182 186 187 187 184 194 201 211 206 209 205 201 194 192
187 174 205 187 200 205 207 211 202 208 224 239 198 166 164 159 209 154 210 100 329 12 78 27 348 304 261 270 280 251 225 239 231 218 238 245 231 219 220 218 207 202 201 206 207 206 196 198 199 196 195 187 191 193 193 191 190 191 191 191 189 188 189 190 191 192 185 169 175 184 180 169 185 87 172 186 210 199 199 201 203 208 195 194 193 192
215 219 150 181 197 205 211 211 206 177 215 237 234 185 195 185 126 80 105 96 34 321 295 123 1 290 278 248 236 238 244 233 227 206 224 225 230 232 231 223 222 226 208 197 200 200 197 196 198 201 195 193 195 196 196 194 193 190 193 191 189 191 193 193 192 186 175 181 183 178 183 190 193 204 193 202 204 199 201 208 195 196 196 198 201 198
190 182 163 192 182 198 206 206 214 175 194 195 257 183 160 141 123 132 140 91 73 187 304 88 181 266 324 299 250 256 250 252 250 215 226 221 228 224 226 225 214 213 220 233 219 201 191 202 193 199 197 197 197 202 193 194 196 195 192 193 190 191 195 194 187 179 179 185 191 193 196 196 197 201 215 211 200 196 207 185 189 196 196 202 202 208
93 146 192 205 179 185 194 206 227 169 159 221 240 134 121 116 129 168 139 134 188 235 324 57 126 193 291 281 267 249 229 250 252 242 241 230 228 226 227 224 215 214 209 199 206 205 201 193 191 195 199 196 201 196 188 193 191 191 192 192 196 194 192 191 185 182 185 189 193 195 199 195 196 201 202 188 195 196 183 180 189 186 199 202 201 201
153 174 186 188 185 183 202 192 192 163 153 214 215 152 149 155 166 138 128 136 129 114 269 319 249 231 258 269 297 307 266 292 262 242 240 234 228 229 229 224 219 212 205 197 199 204 203 201 203 200 196 204 195 179 186 192 193 193 193 194 195 196 188 191 188 189 192 192 190 192 191 195 200 186 186 185 178 175 183 191 196 193 199 203 207 203
295 178 190 180 174 202 200 202 175 167 139 257 166 91 82 85 85 127 102 110 15 86 254 250 190 195 279 277 323 340 270 269 254 241 237 231 225 223 225 228 220 216 214 213 214 208 205 208 211 209 203 191 198 194 189 188 185 190 187 194 193 200 193 190 190 192 195 194 184 188 192 193 191 179 189 181 190 190 182 191 195 198 197 200 202 205
202 322 163 96 199 179 136 104 146 226 171 124 90 73 42 40 50 31 73 98 78 277 250 232 250 162 285 269 214 201 223 208 241 283 275 260 252 247 241 233 221 218 220 218 210 207 205 223 190 169 184 199 197 199 191 190 187 184 187 190 196 202 195 190 189 188 193 189 185 191 188 189 185 186 182 191 207 196 192 202 207 201 203 198 201 194
10 21 86 269 95 131 107 80 1 101 133 130 111 122 81 2 15 31 351 41 144 261 263 244 201 163 202 289 274 240 278 249 217 233 245 254 245 241 234 223 205 183 179 174 162 171 154 127 136 137 149 161 173 165 187 192 188 185 186 183 193 199 195 191 186 184 188 184 184 179 176 182 182 180 188 194 195 194 199 201 209 217 205 209 195 190
35 333 259 1 238 153 116 93 347 20 7 89 104 116 135 191 43 320 19 227 229 210 258 334 198 3 242 229 258 273 264 284 237 208 226 229 240 232 197 183 176 181 170 176 191 189 189 186 186 182 179 171 176 183 184 188 186 187 183 184 185 198 190 187 175 180 180 180 183 177 176 177 179 187 188 187 185 187 190 193 201 196 202 196 186 203
281 282 350 310 11 215 154 156 181 99 282 116 146 147 131 122 115 195 260 231 307 292 269 241 308 256 241 279 245 247 256 250 237 243 220 183 184 190 193 191 190 202 192 198 196 196 201 201 206 208 195 194 194 196 194 195 192 192 189 190 188 192 184 179 173 173 174 185 179 175 173 181 180 189 181 185 185 186 181 178 191 190 189 194 199 196
131 271 257 150 191 189 107 172 171 164 158 192 151 157 172 147 152 192 179 197 213 207 281 281 90 234 130 244 239 241 259 280 221 232 237 218 193 185 190 190 220 229 241 224 205 200 203 209 202 204 205 203 198 194 195 196 202 187 192 182 183 179 190 173 174 166 174 179 178 179 178 170 168 172 179 182 176 173 176 181 175 190 187 188 211 198
189 160 275 303 234 13 180 260 127 99 60 273 181 90 138 209 139 150 202 159 183 176 4 260 208 184 178 251 284 226 288 262 352 247 84 161 184 169 164 195 213 224 228 218 208 218 220 205 197 191 190 187 185 189 188 192 188 187 192 181 182 181 181 180 173 178 172 176 171 167 164 166 161 157 155 158 172 178 173 177 176 189 191 199 204 222
88 218 332 311 30 85 222 288 305 145 168 227 115 196 208 152 102 103 55 143 111 56 255 178 315 285 297 313 274 296 235 251 277 249 243 239 236 269 229 228 226 222 218 218 212 212 212 204 192 185 183 183 179 179 187 189 185 183 177 177 179 176 166 170 171 164 163 160 162 175 161 145 148 156 166 166 172 181 186 175 178 177 206 213 219 229
148 213 331 49 195 310 194 169 297 44 162 104 155 220 217 139 122 135 191 13 121 184 259 119 206 288 356 279 312 352 317 275 271 259 247 248 240 229 237 240 225 207 207 211 217 209 194 186 184 182 178 171 171 171 172 180 180 176 173 169 163 158 160 165 158 161 163 158 159 161 159 150 144 153 162 163 168 163 153 170 180 177 187 213 219 176
115 70 306 280 211 274 342 33 64 312 185 153 187 205 129 223 233 284 110 209 183 236 261 261 241 258 177 236 329 298 237 255 250 237 244 242 228 225 232 248 263 253 194 203 187 166 178 177 175 175 173 173 163 166 168 167 161 153 151 157 156 164 164 162 155 142 138 146 151 156 160 153 131 117 118 119 117 119 140 169 174 173 181 142 126 115
99 137 291 310 100 249 15 90 191 212 311 194 40 64 54 110 187 130 198 171 123 248 167 289 88 234 212 217 207 244 232 235 252 241 231 225 224 221 218 222 219 209 198 202 191 177 171 179 169 160 159 157 157 156 161 153 146 143 146 146 150 144 144 141 144 137 133 136 132 134 130 135 131 127 135 141 127 108 115 138 133 135 104 105 87 89
163 112 156 275 291 88 183 193 207 161 159 216 85 209 235 15 232 113 35 139 172 182 180 196 301 281 257 214 197 248 262 262 222 228 233 237 241 230 226 209 210 214 207 208 183 166 156 153 149 138 125 124 121 127 133 141 148 147 146 151 155 154 155 151 153 140 146 139 139 140 147 153 187 216 154 137 133 124 121 123 111 107 138 108 72 106
94 79 145 167 89 207 242 227 186 187 209 179 169 189 178 131 126 162 246 16 107 143 226 169 249 265 270 203 200 233 251 264 262 228 249 257 250 230 223 225 208 213 223 210 180 156 150 140 136 121 104 106 113 124 129 136 127 133 146 151 147 140 151 152 157 158 155 152 147 155 169 176 178 177 146 124 111 112 110 105 110 134 78 92 54 83
140 128 109 158 207 188 227 274 224 237 147 211 155 229 183 171 111 126 187 238 27 260 116 142 208 263 242 216 222 226 253 258 278 250 241 256 254 230 226 225 225 216 204 210 181 159 153 154 153 149 144 143 142 144 141 138 134 134 130 131 140 140 158 159 161 151 137 132 128 128 129 128 125 118 118 109 105 97 93 89 72 77 94 85 74 58
83 103 83 7 21 306 314 297 301 55 83 301 266 137 148 207 202 179 169 182 163 210 189 268 246 249 281 260 255 256 259 271 274 235 250 261 249 246 226 206 174 141 157 173 168 144 149 148 141 130 137 141 144 145 142 134 122 118 117 123 128 138 145 131 128 125 117 107 96 101 96 98 102 98 101 100 102 100 99 90 81 83 85 85 63 62
104 252 116 107 36 352 340 348 344 332 56 166 208 201 168 232 63 190 105 68 155 213 176 139 243 267 273 274 282 276 288 287 274 274 201 228 251 240 221 214 181 148 141 145 151 149 131 130 141 149 147 145 141 130 126 124 123 118 110 109 116 115 120 115 115 109 109 112 106 96 100 93 93 96 88 94 91 97 87 84 81 69 86 77 63 55
99 178 139 146 157 166 188 212 211 207 192 231 215 180 187 181 170 133 191 232 201 271 139 183 254 235 273 323 307 280 310 291 258 249 266 218 214 213 226 194 178 161 172 168 158 142 156 158 138 126 129 125 128 131 123 115 112 107 102 103 116 120 109 108 104 110 108 108 106 99 95 97 92 95 98 97 90 91 90 83 83 86 65 101 95 79
132 158 198 175 178 190 198 170 51 104 121 185 208 179 195 186 182 151 122 141 204 206 188 224 232 231 250 259 265 271 273 253 274 271 248 247 256 252 216 185 182 184 178 175 172 172 131 123 134 132 125 124 124 122 123 124 118 109 107 98 91 103 109 111 106 104 103 99 102 98 93 93 101 106 108 108 111 98 84 86 94 89 100 108 103 86
108 159 220 193 202 186 120 159 175 150 174 202 177 198 190 172 173 164 181 218 152 91 252 238 231 226 233 234 260 267 273 268 257 248 244 245 241 210 203 191 167 146 153 138 148 158 158 145 134 129 130 122 119 114 109 108 115 119 117 117 110 105 105 103 101 98 97 98 93 95 96 104 112 108 110 109 102 100 102 96 84 87 81 76 68 73
149 187 224 127 198 165 153 142 155 162 178 188 190 187 182 186 163 183 210 218 149 189 228 235 227 239 228 215 227 228 212 220 225 229 222 210 208 212 181 159 154 162 161 163 181 165 156 153 148 141 132 130 122 115 115 111 108 103 99 101 107 102 102 109 105 103 101 97 98 103 109 101 90 88 87 86 84 79 77 75 67 56 53 56 55 56
117 208 189 137 158 101 143 148 165 160 176 151 189 196 197 174 193 199 212 214 193 212 229 235 234 244 227 224 225 232 230 222 249 115 105 164 208 194 174 171 175 180 178 179 180 175 167 153 148 141 135 127 123 120 114 109 104 104 107 103 97 97 104 101 99 102 98 96 101 99 92 88 80 77 76 72 70 67 63 61 57 59 54 47 45 42
122 241 140 130 120 187 189 157 165 164 146 185 203 188 182 195 209 214 218 227 226 266 267 305 330 282 237 190 222 246 255 37 82 147 197 211 197 180 176 184 193 194 195 189 179 166 158 147 139 136 130 133 128 125 115 110 108 100 89 88 91 93 98 100 101 97 101 99 97 94 87 82 76 71 67 62 63 62 68 66 66 61 54 44 45 42
97 198 69 123 152 215 240 162 176 136 120 150 187 189 194 191 205 221 223 218 176 223 242 260 265 254 247 153 224 228 205 174 200 209 215 212 194 178 181 195 198 199 194 192 183 155 149 147 148 147 145 139 133 126 125 122 117 107 103 99 97 99 97 96 99 102 97 97 92 85 85 86 84 77 69 63 59 59 59 61 60 56 52 48 36 25
159 140 153 155 161 219 260 109 110 91 91 279 233 210 195 195 200 207 223 213 205 209 220 227 235 240 143 191 218 227 168 221 232 228 230 229 214 189 191 197 202 198 195 187 171 161 158 160 159 151 140 135 142 139 142 136 126 124 126 113 115 102 93 94 98 100 96 91 90 86 85 84 86 83 73 60 57 58 59 65 62 53 47 42 34 45
90 146 166 157 168 204 22 126 79 97 194 224 230 166 160 190 190 179 216 216 224 196 221 227 251 42 127 220 236 186 186 222 223 236 213 203 197 210 217 212 208 203 195 165 157 158 150 133 127 125 133 139 132 126 131 128 122 120 115 115 109 105 102 102 91 92 95 90 85 84 82 82 84 79 70 61 59 61 64 60 58 54 47 50 43 48
143 115 146 150 93 133 140 88 113 206 227 244 77 159 190 190 171 199 215 211 214 219 243 262 266 226 189 208 220 213 198 223 226 231 239 231 191 189 198 207 209 204 195 167 153 152 151 146 136 135 134 141 139 132 123 112 116 116 108 110 106 103 105 98 98 86 86 86 82 82 79 80 80 77 68 63 64 68 63 60 57 50 40 48 45 43
157 148 140 82 119 69 96 138 163 232 244 323 246 206 184 174 196 189 263 251 224 209 215 235 241 237 216 229 236 225 203 233 257 254 251 258 200 193 193 209 212 196 179 173 162 165 157 162 159 156 153 146 131 131 127 129 127 113 108 100 102 103 97 100 92 87 82 81 78 81 80 85 84 76 73 71 70 68 58 51 50 43 24 49 44 42
152 122 137 158 174 156 199 171 217 328 330 274 257 229 138 174 149 171 226 248 224 208 205 230 243 242 236 238 248 270 251 110 252 264 238 199 207 220 206 218 222 197 174 167 163 164 161 150 144 141 131 130 133 132 131 127 117 112 109 101 98 98 97 94 89 83 82 81 78 80 80 81 89 85 77 73 70 61 54 51 41 34 32 51 43 38
170 152 217 130 233 122 126 163 346 277 257 247 176 202 166 176 164 172 186 263 232 210 207 222 241 238 224 225 229 227 134 217 257 251 238 238 233 188 41 51 57 103 119 120 95 106 118 119 110 109 123 127 122 124 125 123 120 115 109 106 106 102 93 88 85 83 81 82 79 82 85 84 87 85 78 73 70 68 61 60 61 57 30 52 41 35
37 83 147 156 158 93 112 154 198 197 241 152 166 176 171 143 142 116 107 254 238 178 210 211 233 235 192 193 211 148 157 220 240 237 225 206 163 129 113 69 81 89 98 108 126 121 116 113 115 118 114 117 123 129 124 122 119 113 109 109 107 99 95 87 87 82 91 95 98 87 82 79 78 81 82 75 67 63 54 38 40 20 27 40 57 38
107 114 112 129 160 189 166 157 218 205 248 203 184 182 165 135 113 108 110 257 162 169 209 199 217 218 196 205 171 172 184 224 238 238 199 158 125 84 110 124 108 100 90 94 86 109 116 120 116 110 115 123 131 129 124 121 112 108 112 110 108 98 94 95 98 119 109 100 83 78 68 68 73 74 72 68 53 44 47 36 37 25 37 20 42 31
127 160 163 193 182 170 164 230 334 287 263 210 208 179 149 136 117 129 211 227 228 200 209 175 209 215 197 193 169 187 218 221 267 129 113 121 100 76 64 67 93 108 122 120 121 118 110 102 103 110 112 116 124 122 122 122 112 107 109 114 103 95 85 76 52 56 79 79 75 66 65 56 66 65 57 64 61 47 37 42 41 26 39 33 24 36
31 88 338 67 164 178 193 172 230 253 234 171 279 152 162 109 171 208 223 190 160 217 238 185 202 213 180 187 190 213 173 174 129 82 102 110 120 120 115 116 105 87 73 92 108 115 112 108 105 99 86 79 97 106 117 118 108 112 116 108 94 82 51 31 31 36 63 68 64 64 56 55 44 57 59 52 62 53 42 22 38 47 43 36 38 36
177 145 186 184 178 71 103 202 213 256 248 130 109 87 291 173 220 196 163 117 197 192 161 205 191 212 161 205 194 147 139 134 132 136 115 121 129 138 140 136 132 133 133 126 115 115 124 117 108 97 97 84 82 88 104 115 111 115 113 103 91 58 30 11 15 42 70 70 66 60 55 50 51 44 43 41 53 74 54 32 35 25 34 40 38 44
182 141 204 212 174 155 167 186 211 208 143 173 146 178 200 202 194 159 127 172 228 180 200 168 231 199 191 162 145 137 143 133 104 127 119 112 125 126 127 125 124 126 119 111 125 136 127 116 113 109 92 85 79 77 85 121 120 123 114 104 77 63 34 23 20 63 73 70 66 62 57 57 53 50 45 46 44 51 53 34 31 33 36 40 55 59
210 193 169 177 203 159 194 211 223 227 171 178 28 330 187 180 150 180 148 162 166 236 181 151 195 192 179 140 138 144 145 197 157 167 157 168 160 161 157 159 155 150 145 142 141 138 135 134 132 122 104 85 78 70 70 86 127 127 119 113 90 41 65 35 67 86 83 76 70 66 60 59 56 50 45 40 45 44 36 26 41 46 26 58 60 97
220 194 65 106 230 246 304 206 85 63 147 192 208 231 141 113 47 109 137 134 235 188 164 174 180 145 132 139 121 174 164 162 153 175 158 160 162 155 144 138 139 136 134 132 133 136 130 123 120 123 120 99 76 68 64 62 99 120 126 99 89 54 37 90 108 97 91 87 76 68 63 71 56 47 44 36 31 39 36 61 39 71 52 92 105 85
272 127 142 168 236 134 242 147 147 191 205 197 129 31 21 95 133 135 98 132 156 150 144 183 154 158 160 161 151 157 164 168 163 160 162 159 170 169 167 162 159 159 155 153 151 138 136 138 135 136 131 118 113 95 81 83 74 77 87 101 99 23 123 127 113 103 92 83 82 72 64 74 63 57 48 34 30 28 35 29 42 57 65 64 57 45
266 186 160 201 159 184 237 185 197 18 140 185 171 145 160 176 145 107 120 136 142 143 120 141 122 115 133 137 149 146 162 172 163 169 173 180 174 174 170 167 161 152 155 145 147 148 142 149 149 148 143 130 133 120 108 98 91 93 93 93 104 195 133 118 116 108 98 83 82 75 68 67 73 68 39 32 37 38 26 11 26 44 47 43 32 46
161 136 206 170 172 291 20 343 229 95 69 232 245 249 205 181 161 131 126 124 123 106 90 66 113 166 163 160 149 140 152 188 187 175 171 169 169 173 176 164 164 158 150 154 158 159 158 156 150 148 138 124 125 120 113 109 107 104 112 109 82 55 127 122 114 107 93 85 74 71 65 67 75 72 66 49 44 34 38 39 5 40 29 26 74 49
111 188 152 109 188 211 200 190 165 129 220 236 238 225 211 164 129 135 123 127 133 130 155 131 80 106 165 163 163 163 169 180 185 175 176 176 175 167 160 162 160 157 155 150 142 143 134 137 142 141 134 123 130 129 129 126 113 109 98 82 55 61 118 125 114 102 96 98 108 109 107 96 90 80 68 67 58 63 29 40 63 59 76 27 25 48
174 179 148 178 192 219 188 177 192 158 147 209 199 198 156 164 142 152 175 172 194 195 171 150 137 112 168 196 189 173 173 172 178 168 164 172 178 174 169 164 163 163 161 154 147 145 142 140 137 133 133 138 141 140 135 124 119 112 104 89 81 112 120 122 120 118 127 138 135 126 124 121 102 93 87 89 79 69 81 43 29 54 52 49 45 56